Home > Weather > Gurgaon > Past weeks

Flag for India Past Weather in Gurgaon, Haryana, India — Yesterday and Last 2 Weeks

Now
81 °F

Thunderstorms. Mostly cloudy.


Feels Like: 86 °F
Forecast: 87 / 97 °F
Wind: 8 mph from Southeast

Location: New Delhi Palam Airport

Current Time: Jun 28, 2016 at 3:41:27 AM

Latest Report: Jun 28, 2016 at 3:00 AM


Visibility: 2 mi

Pressure: 29.53 "Hg

Humidity: 84%

Dew Point: 75 °F

Location of GurgaonLocation

Past Weather in Gurgaon — Graph

°F

Gurgaon Temperature Yesterday

Maximum temperature yesterday: 102 °F (at 1:00 PM)
Minimum temperature yesterday: 88 °F (at 3:30 AM)
Average temperature yesterday: 93 °F

High & Low Weather Summary for the Past Weeks

 TemperatureHumidityPressure
High104 °F (Jun 13, 11:00 AM)89% (Jun 21, 4:30 AM)29.68 "Hg (Jun 21, 4:30 AM)
Low77 °F (Jun 14, 4:30 AM)29% (Jun 13, 11:00 AM)29.39 "Hg (Jun 15, 5:00 PM)
Average92 °F57%29.55 "Hg
* Reported Jun 13 2:30 AM — Jun 28 2:30 AM, Gurgaon, Weather by CustomWeather, © 2016

Note: Actual official high and low records may vary slightly from our data, if they occured in-between our weather recording intervals... More about our weather records

Advertising

Gurgaon Weather History for the Previous 24 Hours

Scroll right to see more
 ConditionsComfort  
Time TempWeatherWind HumidityBarometerVisibility
2:30 AM
Tue, Jun 28
79 °FThunderstorms. Mostly cloudy.10 mph89%29.53 "Hg1 mi
2:00 AM79 °FThunderstorms. Mostly cloudy.N/A84%29.56 "Hg1 mi
1:30 AM81 °FThunderstorms. Mostly cloudy.9 mph79%29.59 "Hg1 mi
1:00 AM81 °FThunderstorms. Mostly cloudy.9 mph74%29.56 "Hg1 mi
12:30 AM86 °FThunderstorms. Mostly cloudy.9 mph70%29.56 "Hg1 mi
12:00 AM91 °FPassing clouds.8 mph71%29.56 "Hg2 mi
11:30 PM
Mon, Jun 27
91 °FPassing clouds.5 mph71%29.56 "Hg2 mi
11:00 PM91 °FPassing clouds.5 mph67%29.56 "Hg2 mi
10:30 PM91 °FPassing clouds.5 mph67%29.56 "Hg2 mi
10:00 PM91 °FPassing clouds.5 mph67%29.56 "Hg2 mi
9:30 PM93 °FPassing clouds.7 mph56%29.56 "Hg2 mi
9:00 PM95 °FPassing clouds.7 mph53%29.53 "Hg2 mi
8:30 PM95 °FPassing clouds.7 mph53%29.50 "Hg2 mi
8:00 PM95 °FPassing clouds.7 mph53%29.50 "Hg2 mi
7:30 PM95 °FBroken clouds.6 mph53%29.47 "Hg2 mi
7:00 PM95 °FBroken clouds.5 mph53%29.47 "Hg2 mi
6:30 PM95 °FBroken clouds.6 mph53%29.45 "Hg2 mi
6:00 PM95 °FBroken clouds.7 mph53%29.45 "Hg2 mi
5:30 PM95 °FBroken clouds.7 mph53%29.47 "Hg2 mi
5:00 PM95 °FBroken clouds.8 mph53%29.47 "Hg2 mi
4:30 PM99 °FBroken clouds.7 mph44%29.50 "Hg2 mi
4:00 PM99 °FBroken clouds.7 mph44%29.50 "Hg2 mi
3:30 PM99 °FBroken clouds.12 mph44%29.50 "Hg2 mi
3:00 PM100 °FBroken clouds.12 mph42%29.50 "Hg2 mi
2:30 PM102 °FBroken clouds.10 mph40%29.50 "Hg2 mi
2:00 PM102 °FBroken clouds.9 mph42%29.53 "Hg2 mi
1:00 PM102 °FBroken clouds.9 mph40%29.56 "Hg2 mi
12:30 PM99 °FBroken clouds.10 mph47%29.56 "Hg2 mi
12:00 PM97 °FBroken clouds.10 mph56%29.59 "Hg2 mi
11:30 AM97 °FBroken clouds.10 mph56%29.59 "Hg2 mi
11:00 AM95 °FBroken clouds.10 mph60%29.59 "Hg2 mi
10:30 AM95 °FBroken clouds.10 mph60%29.59 "Hg2 mi
10:00 AM93 °FBroken clouds.13 mph63%29.59 "Hg2 mi
9:30 AM93 °FBroken clouds.13 mph63%29.59 "Hg2 mi
9:00 AM93 °FBroken clouds.13 mph63%29.59 "Hg2 mi
8:30 AM91 °FBroken clouds.13 mph67%29.59 "Hg1 mi
8:00 AM90 °FBroken clouds.13 mph71%29.59 "Hg1 mi
7:30 AM88 °FBroken clouds.10 mph75%29.56 "Hg1 mi
7:00 AM88 °FMore clouds than sun.9 mph79%29.56 "Hg1 mi
6:30 AM88 °FMore clouds than sun.9 mph79%29.56 "Hg1 mi
6:00 AM88 °FThunderstorms. More clouds than sun.7 mph79%29.59 "Hg1 mi
5:30 AM88 °FThunderstorms. Mostly cloudy.6 mph79%29.59 "Hg1 mi
5:00 AM88 °FPartly cloudy.9 mph75%29.56 "Hg2 mi
4:30 AM88 °FPartly cloudy.10 mph75%29.56 "Hg2 mi
4:00 AM88 °FPartly cloudy.9 mph75%29.56 "Hg2 mi
3:30 AM88 °FPartly cloudy.8 mph75%29.56 "Hg2 mi
3:00 AM90 °FPassing clouds.9 mph67%29.56 "Hg2 mi
Weather by CustomWeather, © 2016

See weather overviewHow to use our weather pages